Terminal Aerodrome Forecast
Issued by NWS Denver/Boulder, CO

Home | Current Version | Previous Version | Text Only | Print | Product List | Glossary On
Versions: 1 2 3 4 5 6 7 8 9 10 11 12 13 14 15 16 17 18 19 20 21 22 23 24 25 26 27 28 29 30 31 32 33 34 35 36 37 38 39 40 41 42 43 44 45 46 47 48 49 50
000
FTUS45 KBOU 271735
TAFDEN
TAF
KDEN 271735Z 2718/2824 32007KT P6SM FEW090 SCT120 BKN150
     FM272100 33007KT P6SM VCSH SCT100 BKN150
     FM280400 22008KT P6SM FEW100 SCT150
     FM281400 VRB05KT P6SM FEW220
     FM281900 02007KT P6SM FEW110 BKN220=

USA.gov is the U.S. government's official web portal to all federal, state and local government web resources and services.